Weather History for Moorhead, MN

Change the Weather History Date:

Saturday, August 24, 2013

  Actual Average (KFAR) Record (KFAR)
Temperature  
Mean Temperature 83 °F 68 °F  
Max Temperature 93 °F 80 °F 100 °F (1948)
Min Temperature 73 °F 56 °F 38 °F (1887)
Degree Days  
Heating Degree Days 0 2  
Month to date heating degree days 21  
Since 1 June heating degree days 110  
Since 1 July heating degree days 37  
Cooling Degree Days 18 4  
Month to date cooling degree days 141  
Year to date cooling degree days 481  
Since 1 June cooling degree days 450  
Growing Degree Days 33 (Base 50)    
Moisture  
Dew Point 73 °F    
Average Humidity 75    
Maximum Humidity 100    
Minimum Humidity 41    
Precipitation  
Precipitation 0.00 in 0.10 in 1.41 in (1995)
Month to date precipitation 1.91  
Year to date precipitation 15.41  
Snow  
Snow 0.00 in 0.00 in 0.00 in ()
Month to date snowfall 0.0  
Since 1 June snowfall 0.0  
Since 1 July snowfall 0.0  
Snow Depth -    
Sea Level Pressure  
Sea Level Pressure 29.82 in    
Wind  
Wind Speed 14 mph (South)    
Max Wind Speed 21 mph    
Max Gust Speed 29 mph    
Visibility 10 miles    
Events      
T = Trace of Precipitation, MM = Missing Value Source: NWS Daily Summary

Daily Weather History Graph

Daily Weather History Graph

Search for Another Location

Airport:

Trip Planner

Search our weather history database for the weather conditions in past years. The results will help you decide how hot, cold, wet, or windy it might be!

Date:

Astronomy

Aug. 24, 2013 Rise Set
Actual Time 6:36 AM CDT 8:20 PM CDT
Civil Twilight 6:04 AM CDT 8:52 PM CDT
Nautical Twilight 5:24 AM CDT 9:31 PM CDT
Astronomical Twilight 4:41 AM CDT 10:14 PM CDT
Moon 9:54 PM CDT (8/24) 10:56 AM CDT (8/24)
Length of Visible Light 14h 48m
Length of Day
13h 44m
Waning Gibbous, 84% of the Moon is Illuminated
Aug 24
Waning Gibbous
Aug 28
Last Quarter
Sep 5
New
Sep 12
First Quarter
Sep 19
Full

Hourly Weather History & Observations

Time (CDT) Temp. Heat Index Dew Point Humidity Pressure Visibility Wind Dir Wind Speed Gust Speed Precip Events Conditions
12:15 AM 77.0 °F - 73.4 °F 89% 29.91 in 10.0 mi SSE 13.8 mph - N/A   Clear
12:35 AM 77.0 °F - 73.4 °F 89% 29.91 in 10.0 mi SSE 13.8 mph - N/A   Clear
12:54 AM 75.2 °F - 73.4 °F 94% 29.91 in 10.0 mi South 15.0 mph 20.7 mph N/A   Clear
1:15 AM 75.2 °F - 73.4 °F 94% 29.91 in 10.0 mi South 13.8 mph 18.4 mph N/A   Clear
1:35 AM 75.2 °F - 73.4 °F 94% 29.91 in 10.0 mi South 10.4 mph 18.4 mph N/A   Clear
1:54 AM 75.2 °F - 73.4 °F 94% 29.91 in 10.0 mi South 15.0 mph 21.9 mph N/A   Clear
2:15 AM 75.2 °F - 73.4 °F 94% 29.91 in 10.0 mi SSE 15.0 mph 20.7 mph N/A   Clear
2:35 AM 75.2 °F - 73.4 °F 94% 29.90 in 10.0 mi South 13.8 mph 20.7 mph N/A   Scattered Clouds
2:54 AM 75.2 °F - 73.4 °F 94% 29.90 in 10.0 mi SSE 12.7 mph 20.7 mph N/A   Scattered Clouds
3:15 AM 75.2 °F - 73.4 °F 94% 29.90 in 10.0 mi South 12.7 mph 19.6 mph N/A   Clear
3:35 AM 75.2 °F - 73.4 °F 94% 29.90 in 10.0 mi South 15.0 mph 21.9 mph N/A   Clear
3:54 AM 75.2 °F - 73.4 °F 94% 29.89 in 10.0 mi South 15.0 mph 18.4 mph N/A   Clear
4:15 AM 75.2 °F - 73.4 °F 94% 29.90 in 10.0 mi South 11.5 mph 19.6 mph N/A   Clear
4:35 AM 75.2 °F - 73.4 °F 94% 29.89 in 10.0 mi SSE 12.7 mph 17.3 mph N/A   Clear
4:55 AM 75.2 °F - 73.4 °F 94% 29.89 in 10.0 mi SSE 13.8 mph 19.6 mph N/A   Clear
5:15 AM 73.4 °F - 73.4 °F 100% 29.88 in 10.0 mi SSE 13.8 mph - N/A   Clear
5:34 AM 73.4 °F - 73.4 °F 100% 29.88 in 10.0 mi South 12.7 mph - N/A   Clear
5:55 AM 73.4 °F - 73.4 °F 100% 29.88 in 10.0 mi SSE 17.3 mph 23.0 mph N/A   Clear
6:15 AM 73.4 °F - 73.4 °F 100% 29.88 in 10.0 mi South 13.8 mph - N/A   Clear
6:34 AM 73.4 °F - 73.4 °F 100% 29.87 in 10.0 mi South 11.5 mph 17.3 mph N/A   Clear
6:55 AM 73.4 °F - 73.4 °F 100% 29.88 in 7.0 mi South 15.0 mph - N/A   Clear
7:15 AM 73.4 °F - 73.4 °F 100% 29.87 in 7.0 mi South 15.0 mph 24.2 mph N/A   Clear
7:34 AM 75.2 °F - 73.4 °F 94% 29.87 in 10.0 mi South 15.0 mph 20.7 mph N/A   Clear
7:55 AM 75.2 °F - 73.4 °F 94% 29.87 in 10.0 mi South 15.0 mph 18.4 mph N/A   Clear
8:15 AM 75.2 °F - 73.4 °F 94% 29.87 in 10.0 mi South 13.8 mph 21.9 mph N/A   Clear
8:34 AM 77.0 °F - 73.4 °F 89% 29.87 in 10.0 mi South 15.0 mph 20.7 mph N/A   Clear
8:55 AM 78.8 °F - 73.4 °F 83% 29.86 in 7.0 mi South 16.1 mph 21.9 mph N/A   Clear
9:14 AM 78.8 °F - 73.4 °F 83% 29.85 in 10.0 mi South 16.1 mph 21.9 mph N/A   Clear
9:35 AM 78.8 °F - 73.4 °F 83% 29.85 in 10.0 mi South 16.1 mph 23.0 mph N/A   Clear
9:55 AM 80.6 °F 85.4 °F 73.4 °F 79% 29.85 in 10.0 mi South 15.0 mph 25.3 mph N/A   Clear
10:14 AM 80.6 °F 85.4 °F 73.4 °F 79% 29.84 in 10.0 mi South 16.1 mph 21.9 mph N/A   Clear
10:35 AM 80.6 °F 85.4 °F 73.4 °F 79% 29.83 in 10.0 mi South 17.3 mph 25.3 mph N/A   Clear
10:55 AM 82.4 °F 88.2 °F 73.4 °F 74% 29.82 in 10.0 mi South 20.7 mph 28.8 mph N/A   Clear
11:14 AM 82.4 °F 87.2 °F 71.6 °F 70% 29.83 in 10.0 mi South 18.4 mph 25.3 mph N/A   Clear
11:35 AM 84.2 °F 89.6 °F 71.6 °F 66% 29.82 in 10.0 mi South 16.1 mph 28.8 mph N/A   Clear
11:55 AM 84.2 °F 89.6 °F 71.6 °F 66% 29.82 in 10.0 mi SSW 20.7 mph 27.6 mph N/A   Clear
12:14 PM 86.0 °F 91.8 °F 71.6 °F 62% 29.82 in 10.0 mi South 15.0 mph 25.3 mph N/A   Clear
12:35 PM 86.0 °F 91.8 °F 71.6 °F 62% 29.81 in 10.0 mi South 15.0 mph 25.3 mph N/A   Clear
12:55 PM 87.8 °F 93.8 °F 71.6 °F 58% 29.80 in 10.0 mi South 17.3 mph 24.2 mph N/A   Clear
1:14 PM 87.8 °F 93.8 °F 71.6 °F 58% 29.80 in 10.0 mi South 17.3 mph 25.3 mph N/A   Clear
1:35 PM 89.6 °F 96.2 °F 71.6 °F 55% 29.79 in 10.0 mi South 17.3 mph 20.7 mph N/A   Clear
1:55 PM 89.6 °F 94.7 °F 69.8 °F 52% 29.78 in 10.0 mi South 15.0 mph 23.0 mph N/A   Clear
2:14 PM 91.4 °F 96.8 °F 69.8 °F 49% 29.78 in 10.0 mi SSW 19.6 mph 25.3 mph N/A   Clear
2:35 PM 91.4 °F 96.8 °F 69.8 °F 49% 29.78 in 10.0 mi South 16.1 mph 23.0 mph N/A   Clear
2:55 PM 91.4 °F 96.8 °F 69.8 °F 49% 29.77 in 10.0 mi SSW 13.8 mph 21.9 mph N/A   Clear
3:14 PM 91.4 °F 95.4 °F 68.0 °F 46% 29.77 in 10.0 mi South 12.7 mph 21.9 mph N/A   Clear
3:35 PM 93.2 °F 97.7 °F 68.0 °F 44% 29.76 in 10.0 mi South 13.8 mph 24.2 mph N/A   Clear
3:55 PM 91.4 °F 95.4 °F 68.0 °F 46% 29.76 in 10.0 mi South 12.7 mph 26.5 mph N/A   Clear
4:14 PM 91.4 °F 94.0 °F 66.2 °F 43% 29.74 in 10.0 mi South 15.0 mph 20.7 mph N/A   Clear
4:35 PM 93.2 °F 96.2 °F 66.2 °F 41% 29.74 in 10.0 mi South 15.0 mph 23.0 mph N/A   Clear
4:55 PM 93.2 °F 96.2 °F 66.2 °F 41% 29.74 in 10.0 mi SSW 15.0 mph 21.9 mph N/A   Clear
5:14 PM 93.2 °F 97.7 °F 68.0 °F 44% 29.75 in 10.0 mi South 15.0 mph 23.0 mph N/A   Clear
5:35 PM 91.4 °F 95.4 °F 68.0 °F 46% 29.75 in 10.0 mi SSW 16.1 mph 24.2 mph N/A   Clear
5:55 PM 91.4 °F 96.8 °F 69.8 °F 49% 29.75 in 10.0 mi SSW 16.1 mph 19.6 mph N/A   Clear
6:14 PM 91.4 °F 96.8 °F 69.8 °F 49% 29.75 in 10.0 mi SSW 15.0 mph 23.0 mph N/A   Clear
6:35 PM 91.4 °F 96.8 °F 69.8 °F 49% 29.75 in 10.0 mi SSW 12.7 mph 20.7 mph N/A   Clear
6:55 PM 91.4 °F 98.4 °F 71.6 °F 52% 29.75 in 10.0 mi SSW 12.7 mph - N/A   Clear
7:14 PM 89.6 °F 98.2 °F 73.4 °F 59% 29.75 in 10.0 mi South 9.2 mph 16.1 mph N/A   Clear
7:35 PM 89.6 °F 98.2 °F 73.4 °F 59% 29.74 in 10.0 mi South 6.9 mph - N/A   Clear
7:55 PM 87.8 °F 95.6 °F 73.4 °F 62% 29.74 in 10.0 mi South 8.1 mph - N/A   Clear
8:14 PM 86.0 °F 95.1 °F 75.2 °F 70% 29.73 in 10.0 mi South 6.9 mph - N/A   Clear
8:35 PM 84.2 °F 92.3 °F 75.2 °F 74% 29.73 in 10.0 mi South 6.9 mph - N/A   Clear
8:55 PM 84.2 °F 92.3 °F 75.2 °F 74% 29.74 in 10.0 mi SSE 5.8 mph - N/A   Clear
9:14 PM 82.4 °F 89.5 °F 75.2 °F 79% 29.75 in 10.0 mi SSE 5.8 mph - N/A   Clear
9:35 PM 82.4 °F 89.5 °F 75.2 °F 79% 29.75 in 10.0 mi SSE 6.9 mph - N/A   Clear
9:54 PM 82.4 °F 90.9 °F 77.0 °F 84% 29.76 in 10.0 mi SSE 8.1 mph - N/A   Clear
10:15 PM 82.4 °F 89.5 °F 75.2 °F 79% 29.77 in 10.0 mi South 9.2 mph - N/A   Clear
10:35 PM 82.4 °F 90.9 °F 77.0 °F 84% 29.77 in 10.0 mi South 8.1 mph - N/A   Clear
10:54 PM 82.4 °F 89.5 °F 75.2 °F 79% 29.77 in 10.0 mi South 6.9 mph - N/A   Clear
11:15 PM 82.4 °F 89.5 °F 75.2 °F 79% 29.78 in 10.0 mi South 5.8 mph - N/A   Clear
11:35 PM 82.4 °F 90.9 °F 77.0 °F 84% 29.78 in 10.0 mi South 6.9 mph - N/A   Clear
11:54 PM 82.4 °F 90.9 °F 77.0 °F 84% 29.79 in 10.0 mi South 8.1 mph - N/A   Clear